Home > Weather > Wuhan > Past weeks

Flag for China Weather for the Past 2 Weeks in Wuhan, Hubei, China

Now
50 °F

Scattered clouds.


Feels Like: 47 °F
Forecast: 37 / 42 °F
Wind: 8 mph from Northeast

Location: Wuhan Airport

Current Time: Feb 13, 2016 at 11:01:30 AM

Latest Report: Feb 13, 2016 at 10:00 AM


Visibility: N/A

Pressure: 30.09 "Hg

Humidity: 71%

Dew point: 41 °F

Location of WuhanLocation

Historic Weather in Wuhan — Graph

°F

Wuhan Temperature Yesterday

Maximum temperature yesterday: 66 °F (at 1:00 PM)
Minimum temperature yesterday: 50 °F (at 11:00 PM)
Average temperature yesterday: 58 °F

High & Low Weather Summary for the Past Weeks

 TemperatureHumidityPressure
High72 °F (Feb 9, 3:00 PM)100% (Jan 30, 5:00 AM)30.69 "Hg (Jan 30, 5:00 AM)
Low23 °F (Feb 2, 6:00 AM)20% (Feb 6, 4:00 PM)29.65 "Hg (Feb 12, 3:00 PM)
Average45 °F69%30.26 "Hg
* Reported Jan 29 9:00 AM — Feb 13 9:00 AM, Wuhan, Weather by CustomWeather, © 2016

Note: Actual official high and low records may vary slightly from our data, if they occured in-between our weather recording intervals... More about our weather records

Advertising

Wuhan Weather History for the Previous 24 Hours

 ConditionsComfort  
Time TempWeatherWind HumidityBarometerVisibility
9:00 AM
Sat, Feb 13
48 °FPassing clouds.6 mph82%30.07 "HgN/A
8:00 AM48 °FSunny.1 mph87%30.04 "Hg10 mi
7:00 AM48 °FPassing clouds.3 mph87%30.01 "HgN/A
6:00 AM48 °FLight rain. Passing clouds.6 mph94%29.98 "Hg4 mi
5:00 AM48 °FFog.6 mph94%29.95 "Hg3 mi
4:00 AM48 °FFog.6 mph94%29.92 "Hg2 mi
3:00 AM48 °FLight rain. Fog.3 mph94%29.89 "Hg1 mi
2:00 AM48 °FLight rain. Fog.8 mph94%29.89 "Hg1 mi
1:00 AM48 °FLight rain. Fog.8 mph94%29.86 "Hg1 mi
12:00 AM48 °FLight rain. Fog.8 mph100%29.83 "Hg2 mi
11:00 PM
Fri, Feb 12
50 °FFog.8 mph100%29.77 "Hg1 mi
10:00 PM52 °FFog.6 mph100%29.77 "Hg1 mi
9:00 PM52 °FSprinkles. Fog.6 mph100%29.74 "Hg1 mi
8:00 PM54 °FThunderstorms. Fog.6 mph100%29.74 "Hg1 mi
7:00 PM55 °FFog.6 mph94%29.68 "Hg1 mi
6:00 PM59 °FThunderstorms. Fog.1 mph94%29.68 "Hg1 mi
5:00 PM61 °FFog.10 mph88%29.65 "Hg1 mi
4:00 PM63 °FFog.10 mph88%29.65 "Hg1 mi
3:00 PM61 °FFog.8 mph88%29.65 "Hg1 mi
2:00 PM63 °FFog.8 mph88%29.68 "Hg1 mi
1:00 PM66 °FFog.10 mph83%29.71 "Hg1 mi
12:00 PM63 °FFog.13 mph88%29.74 "Hg1 mi
11:00 AM63 °FFog.13 mph88%29.77 "Hg1 mi
Weather by CustomWeather, © 2016

See weather overviewHow to use our weather pages